Regional Weather Roundup
Issued by NWS

Home | Current Version | Previous Version | Graphics & Text | Print | Product List | Glossary On
Versions: 1 2 3 4 5 6 7 8 9 10 11 12 13 14 15 16 17 18 19 20 21 22 23 24 25 26 27 28 29 30 31 32 33 34 35 36 37 38 39 40 41 42 43 44 45 46 47 48 49 50
000
ASUS43 KMPX 020710
RWRMN
WEATHER ROUNDUP FOR MINNESOTA
NATIONAL WEATHER SERVICE TWIN CITIES/CHANHASSEN MN
200 AM CDT WED SEP 02 2015


NOTE: "FAIR" INDICATES FEW OR NO CLOUDS BELOW 12,000 FEET WITH NO
SIGNIFICANT WEATHER AND/OR OBSTRUCTIONS TO VISIBILITY. N/A MEANS
CURRENT SKY AND/OR WEATHER CONDITIONS ARE NOT AVAILABLE.

MNZ060>063-068>070-020800-
   Twin Cities Metro

CITY           SKY/WX    TMP DP  RH WIND       PRES   REMARKS
TWIN CITIES    LGT RAIN  77  73  87 SE5       29.92S FOG
ST PAUL        LGT RAIN  74  73  97 S3        29.92F FOG
CRYSTAL        LGT RAIN  77  73  87 S3        29.90F
BLAINE         LGT RAIN  77  75  94 S5        29.92R
LAKEVILLE      CLOUDY    72  72 100 CALM      29.92S
EDEN PRAIRIE   LGT RAIN  76  72  87 CALM      29.90F FOG
SOUTH ST PAUL  CLOUDY    74  72  91 CALM      29.92R FOG
LAKE ELMO      FAIR      73  72  94 CALM      29.93S
$$
MNZ001>005-007-008-013>017-022>024-027-028-020800-
   Northwest Minnesota

CITY           SKY/WX    TMP DP  RH WIND       PRES   REMARKS
BEMIDJI        CLEAR     64  59  83 SE5       29.89F
HALLOCK        CLEAR     66  55  68 SE9       29.81F
ROSEAU         CLEAR     61  55  82 S5        29.85F
WARROAD        CLEAR     63  57  82 S5        29.87S
THIEF RVR FALL PTCLDY    64  59  82 SE8       29.86S
CROOKSTON      CLEAR     66  63  88 SE7       29.84F
FOSSTON        CLEAR     66  57  72 SE6       29.88S
DETROIT LAKES  CLEAR     70  68  94 SE7       29.89S
MOORHEAD       CLEAR     70  68  94 S7        29.84S
PARK RAPIDS    PTCLDY    68  64  87 SE6       29.90F
MAHNOMEN       FAIR      67  65  92 SE5       29.86F
$$
MNZ006-009>011-018-025>026-020800-
   North Central Minnesota

CITY           SKY/WX    TMP DP  RH WIND       PRES   REMARKS
BAUDETTE       CLEAR     59  54  83 SE5       29.88F
FLAG ISLAND    CLEAR     68  64  88 CALM      29.86F
INTL FALLS     CLEAR     51  50  96 CALM      29.90F
WASKISH        CLEAR     61  57  88 SE5       29.89S
BIG FORK       PTCLDY    55  54  94 CALM      29.92F
LONGVILLE      PTCLDY    61  61 100 CALM      29.91R
GRAND RAPIDS     N/A     66  57  72 SE5       29.92S
CRANE LAKE     PTCLDY    50  48  93 CALM      29.95S
COOK           PTCLDY    55  54  94 CALM      29.94S
WALKER         FAIR      64  62  94 CALM      29.90F
$$
MNZ012-019>021-037-020800-
   Northeast Minnesota

CITY           SKY/WX    TMP DP  RH WIND       PRES   REMARKS
DULUTH         CLOUDY    70  67  90 SE3       29.94S
ELY            MOCLDY    55  54  94 CALM      29.95F
HIBBING        PTCLDY    60  57  89 CALM      29.93F
EVELETH        MOCLDY    59  59 100 CALM      29.95F
DULUTH HARBOR  CLOUDY    66  64  94 NE5       29.92F FOG
TWO HARBORS    MOCLDY    64  61  88 CALM      29.92S
SILVER BAY     PTCLDY    61  57  88 CALM      29.93F
GRAND MARAIS     N/A     57  55  93 VRB3      29.94R
G MARAIS ARPRT MOCLDY    54  48  82 N5        29.99S
$$
MNZ029>031-032-039>041-046>048-054>057-064-020800-
   West Central Minnesota

CITY           SKY/WX    TMP DP  RH WIND       PRES   REMARKS
FERGUS FALLS   CLEAR     72  72 100 S9        29.86S
WHEATON        PTCLDY    64  63  94 S13G18    29.87S
MORRIS         MOCLDY    66  64  94 SE7       29.87F
ALEXANDRIA     MOCLDY    72  70  93 S9        29.92R
ELBOW LAKE     FAIR      69  69  98 S12       29.88S
WADENA         PTCLDY    66  66 100 SE3       29.90F FOG
GLENWOOD       CLOUDY    72  70  94 S12       29.92R
APPLETON       MOCLDY    70  63  78 S7        29.87F
BENSON         CLOUDY    68  63  83 S7        29.89S
ORTONVILLE     MOCLDY    68  63  83 S6        29.88S
MADISON        LGT RAIN  66  64  94 SE8       29.88S
WILLMAR        FAIR      70  66  88 S6        29.91F
$$
MNZ033>034-036-042>043-049>051-058-059-020800-
   Central Minnesota

CITY           SKY/WX    TMP DP  RH WIND       PRES   REMARKS
ST CLOUD       LGT RAIN  72  72 100 SE5       29.90F FOG
SAUK CENTRE    PTSUNNY   70  69  95 CALM      29.91S
PAYNESVILLE    CLOUDY    73  72  96 S6        29.90F
AITKIN         CLOUDY    72  64  78 CALM      29.90F HAZE
PINE RIVER     MOCLDY    64  64 100 CALM      29.95S FOG
BRAINERD       MOCLDY    72  68  87 S5        29.92S
STAPLES        MOCLDY    70  68  94 CALM      29.90F FOG
LONG PRAIRIE   FAIR      70  68  94 CALM      29.91F
LITTLE FALLS   CLOUDY    70  64  83 CALM      29.90F
LITCHFIELD     DRIZZLE   73  73 100 CALM      29.92R
BUFFALO        RAIN      75  71  88 S3        29.93R
MAPLE LAKE     RAIN      75  73  95 SE3       29.92R
$$
MNZ037-044-045-052-053-020800-
   East Central Minnesota

CITY           SKY/WX    TMP DP  RH WIND       PRES   REMARKS
PRINCETON      LGT RAIN  75  73  94 CALM      29.91S
MORA           LGT RAIN  72  70  94 S3        29.94R
CAMBRIDGE      RAIN      77  66  69 S6        29.90S
RUSH CITY      CLOUDY    73  71  93 S3        29.92S
MOOSE LAKE     CLOUDY    72  70  94 CALM      29.91R FOG
HINCKLEY       FAIR      72  72 100 CALM      29.92S FOG
CLOQUET        CLOUDY    72  68  88 CALM      29.93F
MCGREGOR       CLOUDY    72  70  94 S5        29.92R
$$
MNZ071>073-080-081-089-090-097-098-020800-
   Southwest Minnesota

CITY           SKY/WX    TMP DP  RH WIND       PRES   REMARKS
MONTEVIDEO     CLOUDY    68  63  83 S8        29.90F
GRANITE FALLS  CLOUDY    66  63  89 SE13      29.91S
CANBY          MOCLDY    68  63  85 SE9       29.88F
MARSHALL       CLOUDY    68  57  68 SE14      29.89F
REDWOOD FALLS  TSTM      68  65  90 S14G24    29.93R
OLIVIA         LGT RAIN  68  63  83 SE5       29.91S
PIPESTONE      CLEAR     66  64  94 E5        29.89S
WINDOM         CLOUDY    72  68  88 NE6       29.92R
WORTHINGTON    PTCLDY    73  66  78 S12       29.89S
JACKSON        CLOUDY    73  70  88 S7        29.91S
TRACY          CLOUDY    67  64  87 E10       29.91F
SLAYTON        PTCLDY    66  66  99 NE9G16    29.92R
$$
MNZ065>067-074>077-082>085-091>093-020800-
   South Central Minnesota

CITY           SKY/WX    TMP DP  RH WIND       PRES   REMARKS
MANKATO        CLOUDY    73  70  88 SW10      29.94R
NEW ULM        TSTM      70  66  88 S7        29.92F
ST JAMES       CLOUDY    70  66  88 E8        29.93F THUNDER
FAIRMONT       CLOUDY    72  63  73 S14       29.90F THUNDER
GLENCOE        TSTM      74  73  98 CALM      29.92S
FARIBAULT      CLOUDY    72  70  94 SE3       29.93F
OWATONNA       CLOUDY    75  70  83 S8        29.93F
WASECA         CLOUDY    73  68  83 S8        29.94F
ALBERT LEA     MOCLDY    75  70  83 S7        29.94F
$$
MNZ078>079-086>088-094>096-020800-
   Southeast Minnesota

CITY           SKY/WX    TMP DP  RH WIND       PRES   REMARKS
ROCHESTER      MOCLDY    72  70  93 S8        29.97F
RED WING       CLOUDY    72  72 100 CALM      29.92S FOG
STANTON        CLOUDY    74  71  88 CALM      29.92S
DODGE CENTER   MOCLDY    73  70  88 S8        29.96F
WINONA         PTCLDY    73  72  94 CALM      29.95F
AUSTIN         PTCLDY    73  72  94 SE6       29.95F
PRESTON        PTCLDY    73  68  85 S7        29.99S
$$
ABBREVIATIONS USED IN REMARKS
   TC - TEMPERATURES IN CELSIUS
  WCI - WIND CHILL INDEX
   HX - HEAT INDEX
  VSB - VISIBILITY
$$


USA.gov is the U.S. government's official web portal to all federal, state and local government web resources and services.